Skip Page Navigation
NASA JPL Caltech
NASA Logo - Jet Propulsion Laboratory + View the NASA Portal
+ Center for Near-Earth Object Studies
JPL Home Earth Solar System Stars & Galaxies Technology
JPL Solar System Dynamics
BODIES ORBITS EPHEMERIDES TOOLS PHYSICAL DATA DISCOVERY FAQ SITE MAP
JPL Small-Body Database Browser
Search: [ help ]  
109762 (2001 RG76)
Classification: Main-belt Asteroid          SPK-ID: 2109762
Ephemeris | Orbit Diagram | Orbital Elements | Mission Design | Physical Parameters | Discovery Circumstances | Close-Approach Data ]

[ show orbit diagram ]
Orbital Elements at Epoch 2459000.5 (2020-May-31.0) TDB
Reference: JPL 19 (heliocentric ecliptic J2000)
 Element Value Uncertainty (1-sigma)   Units 
e .326667024739429 6.3045e-08  
a 2.57799264414367 1.8509e-08 au
q 1.735847457281124 1.7106e-07 au
i 4.446946180932936 5.4983e-06 deg
node 115.4123558638936 6.6149e-05 deg
peri 222.8512556461524 6.6712e-05 deg
M 210.9598366356524 1.5902e-05 deg
tp 2459626.424217074146
(2022-Feb-15.92421707)
7.276e-05 TDB
period 1511.892586938718
4.14
1.6282e-05
4.458e-08
d
yr
n .2381121536741763 2.5644e-09 deg/d
Q 3.420137831006217 2.4556e-08 au
  Orbit Determination Parameters
   # obs. used (total)      592  
   data-arc span      10649 days (29.16 yr)  
   first obs. used      1991-02-21  
   last obs. used      2020-04-18  
   planetary ephem.      DE431  
   SB-pert. ephem.      SB431-N16  
   condition code      0  
   norm. resid. RMS      .58652  
   source      ORB  
   producer      Otto Matic  
   solution date      2020-May-20 19:08:19  

Additional Information
 Earth MOID = .72989 au 
 Jupiter MOID = 1.98726 au 
 T_jup = 3.345 
[ show covariance matrix ]

Ephemeris | Orbit Diagram | Orbital Elements | Mission Design | Physical Parameters | Discovery Circumstances | Close-Approach Data ]

Physical Parameter Table
Parameter Symbol Value Units Sigma Reference Notes
absolute magnitude H 15.4   n/a MPO417563  

109762 (2001 RG76)          Discovered 2001-Sep-10 by LINEAR at Socorro
Reference: 20051019/Numbers.arcLast Updated: 2005-10-26

[ show close-approach data ]
Alternate Designations
 2001 RG76 = 1996 LG5 = 1997 WE53 
Ephemeris | Orbit Diagram | Orbital Elements | Mission Design | Physical Parameters | Discovery Circumstances | Close-Approach Data ]
ABOUT SSD CREDITS/AWARDS PRIVACY/COPYRIGHT GLOSSARY LINKS
FirstGov 2020-Aug-14 09:06 UT
(server date/time)  
NASA Home Page
Site Manager:   Ryan S. Park
Webmaster  Alan B. Chamberlin